Regional Weather Roundup
Issued by NWS Cleveland, OH

Home | Current Version | Previous Version | Graphics & Text | Print | Product List | Glossary On
Versions: 1 2 3 4 5 6 7 8 9 10 11 12 13 14 15 16 17 18 19 20 21 22 23 24 25 26 27 28 29 30 31 32 33 34 35 36 37 38 39 40 41 42 43 44 45 46 47 48 49 50
000
ASUS41 KCLE 241310
RWRCLE
OHIO REGIONAL WEATHER ROUNDUP
NATIONAL WEATHER SERVICE CLEVELAND, OH
900 AM EDT FRI OCT 24 2014

NOTE: "FAIR" INDICATES FEW OR NO CLOUDS BELOW 12,000 FEET WITH NO
SIGNIFICANT WEATHER AND/OR OBSTRUCTIONS TO VISIBILITY.

OHZ001>008-015>018-024>027-034-035-043-044-241400-
   NORTHWEST OHIO

CITY           SKY/WX    TMP DP  RH WIND       PRES   REMARKS
DEFIANCE       CLEAR     38  36  92 CALM      30.10S FOG
FINDLAY        MOSUNNY   39  37  92 S6        30.10R FOG
TOLEDO EXPRESS SUNNY     37  35  92 CALM      30.10R FOG
TOLEDO EXEC    MOSUNNY   40  36  86 SW3       30.11R FOG
LIMA           SUNNY     42  39  89 S5        30.11R FOG
$$

OHZ009>014-019>023-028>033-038-089-241400-
   NORTHEAST OHIO

CITY           SKY/WX    TMP DP  RH WIND       PRES   REMARKS
CLE-HOPKINS    PTSUNNY   43  39  86 S5        30.13R
CLE-LAKEFRONT  PTSUNNY   46  40  79 S6        30.10R
CUY CO. ARPT   PTSUNNY   46  43  87 SW9       30.10S
LORAIN-ELYRIA  PTSUNNY   39  38  96 SW5       30.11R FOG
ASHTABULA      PTSUNNY   39  38  96 CALM      30.10R FOG
AKRON-CANTON   PTSUNNY   40  36  86 CALM      30.10S
WOOSTER        MOSUNNY   40  38  93 CALM      30.12R FOG
MANSFIELD      PTSUNNY   38  37  97 S3        30.11R
YOUNGSTOWN     CLOUDY    40  39  97 CALM      30.09S FOG
$$

OHZ042-051>053-060>062-070>072-077>081-241400-
  SOUTHWEST OHIO

CITY           SKY/WX    TMP DP  RH WIND       PRES   REMARKS
CINC-COVINGTON MOSUNNY   40  38  93 CALM      30.13R
CINC-LUNKEN    PTSUNNY   40  40 100 CALM      30.16R FOG
HAMILTON       FOG       36  36 100 CALM      30.15R VSB 1/4
DAYTON         MOSUNNY   42  40  92 S3        30.13R FOG
WRIGHT-PAT AFB MOSUNNY   39  37  94 CALM      30.13R
DAYTON GENERAL MOSUNNY   41  39  93 CALM      30.12R
WILMINGTON     PTSUNNY   42  39  89 CALM      30.13R FOG
$$

OHZ036-037-039>041-045>050-054>059-063>069-073>076-082>088-241400-
  CENTRAL AND SOUTHEAST OHIO

CITY           SKY/WX    TMP DP  RH WIND       PRES   REMARKS
COLUMBUS       PTSUNNY   42  39  89 CALM      30.12S
OSU AIRPORT    PTSUNNY   43  40  89 CALM      30.12R FOG
BOLTON FIELD   SUNNY     41  41 100 CALM      30.13R FOG
RICKENBACK AFB PTSUNNY   39  38  97 CALM      30.13R FOG
NEWARK         MOSUNNY   40  38  93 CALM      30.12S FOG
MARION         PTSUNNY   39  37  92 S5        30.11S FOG
LANCASTER      MOSUNNY   39  37  92 CALM      30.13R
ZANESVILLE     PTSUNNY   34  33  96 CALM      30.13R
NEW PHILLY     FOG       38  37  97 CALM      30.13R VSB<1/4
$$



USA.gov is the U.S. government's official web portal to all federal, state and local government web resources and services.